When you browse on this site, cookies collect data to enhance your experience and personalize the content and advertising you see.
Visit our Privacy Policy to learn more. By continuing to use the site, you agree to this use of cookies and data.
  • în România
  • Lista ţărilor
  • Pe 7 zile
  • Temperatura apei
  • Meteo pe hartă
  • Widget-uri
  • user-avatar
    Intrare

    Meteo pe oră la Bucureşti

    Astăzi, 24 Februarie, Luni

    Timp Temperatura Precipitaţii Vânt Presiune Umiditate
    00:00 +7°C° 0 mm 4 m/s 752 mmHg 62%
    01:00 +7°C° 0 mm 5 m/s 751 mmHg 61%
    02:00 +8°C° 0 mm 6 m/s 750 mmHg 57%
    03:00 +8°C° 0 mm 6 m/s 749 mmHg 55%
    04:00 +8°C° 0 mm 6 m/s 748 mmHg 53%
    05:00 +8°C° 0 mm 5 m/s 748 mmHg 50%
    06:00 +8°C° 0 mm 6 m/s 748 mmHg 50%
    07:00 +9°C° 0 mm 7 m/s 748 mmHg 50%
    08:00 +10°C° 0 mm 9 m/s 747 mmHg 52%
    09:00 +11°C° 0 mm 9 m/s 747 mmHg 49%
    10:00 +13°C° 0 mm 10 m/s 748 mmHg 45%
    11:00 +16°C° 0 mm 11 m/s 749 mmHg 42%
    12:00 +14°C° 0 mm 11 m/s 749 mmHg 37%
    13:00 +13°C° 0 mm 10 m/s 750 mmHg 32%
    14:00 +12°C° 0 mm 10 m/s 751 mmHg 27%
    15:00 +12°C° 0 mm 9 m/s 752 mmHg 27%
    16:00 +11°C° 0 mm 8 m/s 753 mmHg 27%
    17:00 +10°C° 0 mm 7 m/s 754 mmHg 28%
    18:00 +9°C° 0 mm 6 m/s 755 mmHg 31%
    19:00 +8°C° 0 mm 5 m/s 756 mmHg 35%
    20:00 +7°C° 0 mm 4 m/s 757 mmHg 38%
    21:00 +7°C° 0 mm 3 m/s 757 mmHg 42%
    22:00 +7°C° 0 mm 2 m/s 758 mmHg 45%
    23:00 +6°C° 0 mm 2 m/s 758 mmHg 49%

    Mâine, 25 Februarie, Marţi

    Timp Temperatura Precipitaţii Vânt Presiune Umiditate
    00:00 +6°C° 0 mm 2 m/s 758 mmHg 51%
    01:00 +5°C° 0 mm 2 m/s 758 mmHg 54%
    02:00 +5°C° 0 mm 2 m/s 758 mmHg 57%
    03:00 +4°C° 0 mm 2 m/s 758 mmHg 60%
    04:00 +3°C° 0 mm 3 m/s 757 mmHg 63%
    05:00 +2°C° 0 mm 3 m/s 757 mmHg 66%
    06:00 +3°C° 0 mm 3 m/s 756 mmHg 65%
    07:00 +4°C° 0 mm 2 m/s 756 mmHg 65%
    08:00 +4°C° 0 mm 2 m/s 756 mmHg 64%
    09:00 +4°C° 0 mm 3 m/s 755 mmHg 57%
    10:00 +7°C° 0 mm 3 m/s 755 mmHg 51%
    11:00 +8°C° 0 mm 4 m/s 754 mmHg 44%
    12:00 +10°C° 0 mm 4 m/s 753 mmHg 39%
    13:00 +12°C° 0 mm 4 m/s 752 mmHg 34%
    14:00 +13°C° 0 mm 4 m/s 751 mmHg 28%
    15:00 +13°C° 0 mm 3 m/s 751 mmHg 30%
    16:00 +14°C° 0 mm 2 m/s 750 mmHg 32%
    17:00 +13°C° 0 mm 1 m/s 750 mmHg 34%
    18:00 +12°C° 0 mm 1 m/s 750 mmHg 36%
    19:00 +12°C° 0 mm 1 m/s 750 mmHg 39%
    20:00 +11°C° 0 mm 1 m/s 750 mmHg 41%
    21:00 +10°C° 0 mm 1 m/s 749 mmHg 43%
    22:00 +10°C° 0 mm 1 m/s 749 mmHg 45%
    23:00 +8°C° 0 mm 2 m/s 748 mmHg 47%

    Poimâine, 26 Februarie, Miercuri

    Timp Temperatura Precipitaţii Vânt Presiune Umiditate
    00:00 +8°C° 0 mm 2 m/s 748 mmHg 49%
    01:00 +8°C° 0 mm 2 m/s 747 mmHg 50%
    02:00 +7°C° 0 mm 2 m/s 747 mmHg 52%
    03:00 +7°C° 0 mm 2 m/s 746 mmHg 54%
    04:00 +7°C° 0 mm 3 m/s 746 mmHg 56%
    05:00 +5°C° 0 mm 3 m/s 746 mmHg 58%
    06:00 +7°C° 0 mm 3 m/s 745 mmHg 59%
    07:00 +7°C° 0 mm 3 m/s 745 mmHg 59%
    08:00 +7°C° 0 mm 3 m/s 745 mmHg 60%
    09:00 +9°C° 0 mm 3 m/s 745 mmHg 57%
    10:00 +10°C° 0 mm 3 m/s 744 mmHg 53%
    11:00 +12°C° 0 mm 3 m/s 744 mmHg 50%
    12:00 +13°C° 0 mm 4 m/s 743 mmHg 47%
    13:00 +15°C° 0 mm 4 m/s 742 mmHg 45%
    14:00 +17°C° 0 mm 4 m/s 742 mmHg 43%
    15:00 +17°C° 0 mm 3 m/s 741 mmHg 44%
    16:00 +17°C° 0 mm 2 m/s 741 mmHg 46%
    17:00 +17°C° 0 mm 2 m/s 740 mmHg 47%
    18:00 +16°C° 0 mm 2 m/s 740 mmHg 51%
    19:00 +15°C° 0 mm 2 m/s 740 mmHg 55%
    20:00 +14°C° 0 mm 2 m/s 741 mmHg 59%
    21:00 +13°C° 0 mm 2 m/s 741 mmHg 61%
    22:00 +12°C° 0 mm 2 m/s 740 mmHg 64%
    23:00 +12°C° 0 mm 2 m/s 740 mmHg 66%

    27 Februarie, Joi

    Timp Temperatura Precipitaţii Vânt Presiune Umiditate
    00:00 +10°C° 0 mm 2 m/s 740 mmHg 68%
    01:00 +10°C° 0 mm 2 m/s 740 mmHg 70%
    02:00 +10°C° 0 mm 2 m/s 740 mmHg 72%
    03:00 +9°C° 0 mm 2 m/s 740 mmHg 73%
    04:00 +9°C° 0 mm 2 m/s 739 mmHg 73%
    05:00 +8°C° 0 mm 2 m/s 739 mmHg 74%
    06:00 +9°C° 0 mm 2 m/s 739 mmHg 73%
    07:00 +9°C° 0 mm 2 m/s 739 mmHg 73%
    08:00 +10°C° 0 mm 1 m/s 739 mmHg 72%
    09:00 +9°C° 0.2 mm 3 m/s 739 mmHg 71%
    10:00 +10°C° 0.2 mm 4 m/s 739 mmHg 69%
    11:00 +10°C° 0.2 mm 6 m/s 739 mmHg 68%
    12:00 +9°C° 0.6 mm 6 m/s 739 mmHg 65%
    13:00 +9°C° 0.6 mm 7 m/s 739 mmHg 63%
    14:00 +7°C° 0.6 mm 8 m/s 740 mmHg 60%
    15:00 +8°C° 0 mm 7 m/s 740 mmHg 60%
    16:00 +6°C° 0 mm 7 m/s 740 mmHg 61%
    17:00 +7°C° 0 mm 6 m/s 741 mmHg 61%
    18:00 +6°C° 0.9 mm 5 m/s 742 mmHg 69%
    19:00 +3°C° 0.9 mm 5 m/s 743 mmHg 76%
    20:00 +3°C° 0.9 mm 4 m/s 744 mmHg 84%
    21:00 +4°C° 0.6 mm 4 m/s 745 mmHg 76%
    22:00 +3°C° 0.6 mm 5 m/s 746 mmHg 68%
    23:00 +5°C° 0.6 mm 5 m/s 747 mmHg 60%

    28 Februarie, Vineri

    Timp Temperatura Precipitaţii Vânt Presiune Umiditate
    00:00 +3°C° 0 mm 5 m/s 747 mmHg 58%
    01:00 +3°C° 0 mm 5 m/s 748 mmHg 57%
    02:00 +3°C° 0 mm 6 m/s 749 mmHg 55%
    03:00 +2°C° 0 mm 6 m/s 749 mmHg 56%
    04:00 +2°C° 0 mm 6 m/s 750 mmHg 56%
    05:00 0°C° 0 mm 7 m/s 750 mmHg 56%
    06:00 +1°C° 0 mm 6 m/s 750 mmHg 58%
    07:00 +1°C° 0 mm 6 m/s 751 mmHg 60%
    08:00 +1°C° 0 mm 5 m/s 751 mmHg 63%
    09:00 +3°C° 0 mm 5 m/s 751 mmHg 57%
    10:00 +5°C° 0 mm 5 m/s 752 mmHg 52%
    11:00 +6°C° 0 mm 5 m/s 752 mmHg 47%
    12:00 +7°C° 0 mm 5 m/s 751 mmHg 43%
    13:00 +8°C° 0 mm 5 m/s 751 mmHg 38%
    14:00 +9°C° 0 mm 6 m/s 750 mmHg 34%
    15:00 +8°C° 0.1 mm 6 m/s 750 mmHg 43%
    16:00 +7°C° 0.1 mm 6 m/s 750 mmHg 52%
    17:00 +7°C° 0.1 mm 6 m/s 749 mmHg 62%
    18:00 +5°C° 0.2 mm 6 m/s 750 mmHg 65%
    19:00 +5°C° 0.2 mm 6 m/s 750 mmHg 68%
    20:00 +5°C° 0.2 mm 6 m/s 751 mmHg 72%
    21:00 +5°C° 0 mm 5 m/s 752 mmHg 73%
    22:00 +4°C° 0 mm 4 m/s 752 mmHg 74%
    23:00 +4°C° 0 mm 4 m/s 753 mmHg 75%

    29 Februarie, Sâmbătă

    Timp Temperatura Precipitaţii Vânt Presiune Umiditate
    00:00 +3°C° 0 mm 3 m/s 754 mmHg 72%
    01:00 +3°C° 0 mm 2 m/s 754 mmHg 69%
    02:00 +3°C° 0 mm 2 m/s 755 mmHg 66%
    03:00 +2°C° 0 mm 2 m/s 755 mmHg 66%
    04:00 +2°C° 0 mm 2 m/s 755 mmHg 67%
    05:00 +2°C° 0 mm 2 m/s 756 mmHg 67%
    06:00 +2°C° 0 mm 2 m/s 756 mmHg 66%
    07:00 +2°C° 0 mm 2 m/s 756 mmHg 65%
    08:00 +2°C° 0 mm 2 m/s 756 mmHg 65%
    09:00 +3°C° 0 mm 2 m/s 755 mmHg 59%
    10:00 +4°C° 0 mm 3 m/s 755 mmHg 54%
    11:00 +5°C° 0 mm 4 m/s 755 mmHg 49%
    12:00 +7°C° 0 mm 4 m/s 754 mmHg 45%
    13:00 +9°C° 0 mm 3 m/s 754 mmHg 41%
    14:00 +10°C° 0 mm 3 m/s 753 mmHg 38%
    15:00 +10°C° 0 mm 3 m/s 752 mmHg 39%
    16:00 +10°C° 0 mm 2 m/s 752 mmHg 39%
    17:00 +12°C° 0 mm 2 m/s 751 mmHg 40%
    18:00 +10°C° 0 mm 2 m/s 751 mmHg 44%
    19:00 +10°C° 0 mm 1 m/s 751 mmHg 47%
    20:00 +9°C° 0 mm 1 m/s 751 mmHg 50%
    21:00 +9°C° 0 mm 1 m/s 751 mmHg 54%
    22:00 +8°C° 0 mm 1 m/s 751 mmHg 58%
    23:00 +8°C° 0 mm 1 m/s 750 mmHg 62%
    Arată mai mult